Location: Montague
(41.3030°N, 74.7940°W)
Time: 03:29:31
(UTC-05:00)

Daily predictions for brighter satellites

Satellite Brightness Start Highest point End
(mag) Time Altitude Azimuth Time Altitude Azimuth Time Altitude Azimuth
SL-16 R/B 4.5 03:23:27 20° ENE 03:23:27 20° ENE 03:25:54 10° NE
CENTAUR R/B 4.2 03:25:34 29° ENE 03:25:34 29° ENE 03:28:59 10° NE
Cosmos 2181 Rocket 3.9 04:27:00 87° WSW 04:27:00 87° WSW 04:33:19 10° S
DELTA 2 R/B (1) 4.5 04:32:33 37° S 04:32:33 37° S 04:36:40 10° SE
Cosmos 2333 Rocket 4.3 04:45:24 14° N 04:45:24 14° N 04:46:15 10° N
Cosmos 2297 3.9 04:42:45 57° SSW 04:42:45 57° SSW 04:47:26 10° S
Cosmos 1536 Rocket 4.1 04:47:32 41° NNE 04:48:49 58° E 04:53:08 10° SSE
ATLAS CENTAUR Rocket 4.2 04:47:53 24° WSW 04:52:59 33° SSW 04:57:42 10° SE
USA 215 3.2 04:46:42 10° NE 04:53:16 88° SE 04:56:46 30° SW
SL-16 R/B 2.4 05:05:26 48° NW 05:05:26 48° NW 05:10:43 10° NNE
Cosmos 1680 Rocket 3.6 05:06:01 52° NW 05:06:01 52° NW 05:10:45 10° N
Tiangong 2 2.3 05:06:52 39° ENE 05:06:52 39° ENE 05:09:00 10° ENE
Okean 1 3.3 05:06:19 56° N 05:07:08 84° E 05:11:09 10° S
SJ-6F 4.2 05:03:40 10° NNE 05:07:46 87° WNW 05:11:50 10° SSW
Okean 1 Rocket 4.3 05:04:11 10° SSE 05:08:19 41° E 05:12:27 10° NNE
Cosmos 921 Rocket 2.9 05:08:05 55° NNW 05:09:01 81° WSW 05:13:32 10° SSE
Meteor 1-25 Rocket 4.2 05:04:41 10° SSW 05:10:29 67° WNW 05:16:18 10° N
Abrixas rocket 4.3 05:11:31 17° S 05:13:17 26° SE 05:16:08 10° E
CENTAUR R/B 3.1 05:12:47 36° NW 05:13:26 37° NW 05:19:50 10° NNE
COSMO-SKYMED 1 2.5 05:10:01 10° SSE 05:14:20 84° ENE 05:17:08 22° N
Cosmos 1812 3.7 05:17:05 32° SSW 05:17:05 32° SSW 05:19:26 10° S
Cosmos 1238 Rocket 3.6 05:17:54 39° NW 05:19:19 51° W 05:24:49 10° SSW
Cosmos 1346 Rocket 2.6 05:23:01 40° NNW 05:24:16 71° W 05:28:11 10° S
Cosmos 2112 Rocket 4.3 05:23:28 34° WSW 05:24:53 42° WNW 05:29:50 10° N
NOAA 6 4.0 05:22:02 10° N 05:27:05 60° WNW 05:32:07 10° SSW
Cosmos 1633 2.8 05:28:27 10° S 05:32:05 70° E 05:35:43 10° NNE
Cosmos 2237 Rocket 4.1 05:38:25 12° NNW 05:38:25 12° NNW 05:39:27 10° NNW
Radarsat Rocket 4.4 05:29:37 10° NNE 05:36:35 72° WNW 05:44:27 10° SSW
Cosmos 2341 Rocket 4.4 05:31:51 10° S 05:38:05 68° E 05:44:19 10° NNE
Cosmos 2074 Rocket 4.2 05:32:27 10° SSW 05:38:26 46° WNW 05:44:28 10° N
Cosmos 1300 Rocket 3.4 05:34:08 10° SSW 05:38:32 70° W 05:42:57 10° N
PSLV R/B 3.4 05:38:42 40° WSW 05:39:41 64° SSW 05:43:02 10° ESE
Meteor 1-28 Rocket 3.2 05:36:08 10° SSE 05:39:55 87° ENE 05:43:45 10° N
CZ-4 R/B 3.2 05:36:55 10° NNE 05:40:32 33° E 05:44:05 10° SSE
Lacrosse 5 2.1 05:36:47 10° SW 05:41:51 73° SE 05:46:58 10° NE
USA 129 2.1 05:46:47 10° SSE 05:48:45 59° ENE 05:49:37 29° N
Meteor 2-4 Rocket 4.0 05:43:23 10° N 05:48:53 70° E 05:54:29 10° SSE
Lacrosse 4 Rocket 4.0 05:48:59 10° NNE 05:51:15 14° NE 05:53:28 10° E
Cosmos 192 4.2 05:46:50 10° SSW 05:51:43 69° WNW 05:56:37 10° NNE
Cosmos 1536 2.8 05:48:13 10° S 05:52:11 83° E 05:56:13 10° N
CSL-04 Rocket 3.7 05:47:43 10° NNE 05:53:18 82° WNW 05:58:48 10° SSW
Cosmos 2184 Rocket 4.4 05:47:46 10° SW 05:53:22 36° WNW 05:59:03 10° N
Cosmos 44 Rocket 3.4 05:48:32 10° SSW 05:53:43 84° WNW 05:58:53 10° NNE
CSL-04 Debris 4.2 05:49:05 10° NNE 05:54:34 88° ESE 06:00:03 10° SSW
Transit 2A Rocket 4.5 05:53:37 15° NW 05:57:19 72° WSW 06:01:37 10° SSE
Cosmos 1340 4.4 05:54:01 10° N 05:57:30 34° ENE 06:00:58 10° SE
SKYMED 2 4.5 05:58:48 10° SSW 06:02:33 28° W 06:05:46 13° NW
Cosmos 1603 4.0 05:57:25 10° SW 06:02:49 44° WNW 06:08:15 10° NNE
Meteor 2-13 Rocket 4.5 05:58:17 10° SSW 06:04:22 61° W 06:10:28 10° N
Cosmos 2369 Rocket 2.3 05:58:49 10° NNW 06:04:35 88° ENE 06:10:17 10° SSE
Cosmos 2056 Rocket 3.9 06:02:28 11° NW 06:07:09 40° WSW 06:11:54 10° S
SL-24 DEB 4.4 06:03:25 10° S 06:08:07 58° W 06:12:52 10° NNW
Cosmos 2154 Rocket 4.1 06:02:38 10° SSW 06:08:42 53° WNW 06:14:45 10° N
Helios 1B rocket 2.8 06:11:10 10° SSE 06:15:17 67° ENE 06:19:25 10° N
Kosmos-1675 3.9 06:16:41 10° SW 06:19:29 76° NW 06:30:31 10° NE
Ariane Rocket 3.6 06:18:33 10° N 06:23:04 33° WNW 06:27:33 10° SW
IDEFIX/ARIANE 42P 2.7 06:21:47 10° NNE 06:27:00 83° ESE 06:32:12 10° SSW
Meteor 1-29 3.2 06:24:58 10° SSE 06:28:20 71° ENE 06:31:42 10° N
Cosmos 1943 3.2 06:23:26 10° SW 06:28:57 58° WNW 06:34:33 10° NNE
SJ-7 4.4 06:29:07 10° N 06:33:19 84° W 06:37:26 10° SSW
YAOGAN 1 2.6 06:29:20 10° NNE 06:33:41 85° WNW 06:38:01 10° SSW
Cosmos 1975 4.1 06:30:51 10° SSE 06:34:46 46° E 06:38:42 10° NNE
USA 215 3.9 06:30:02 10° NE 06:35:50 35° NNW 06:41:35 10° W
AQUARIUS 4.1 06:33:58 10° N 06:38:28 70° WNW 06:42:55 10° SSW
Cosmos 1025 Rocket 3.7 06:36:15 10° NNW 06:40:15 35° W 06:44:13 10° SSW
